TimeEDT,TemperatureF,Dew PointF,Humidity,Sea Level PressureIn,VisibilityMPH,Wind Direction,Wind SpeedMPH,Gust SpeedMPH,PrecipitationIn,Events,Conditions,WindDirDegrees,DateUTC
12:53 AM,44.1,39.0,82,30.12,10.0,Calm,Calm,-,N/A,,Clear,0,2012-10-07 04:53:00
1:53 AM,43.0,41.0,93,30.10,10.0,Calm,Calm,-,N/A,,Clear,0,2012-10-07 05:53:00
2:53 AM,44.1,42.1,93,30.08,10.0,SSE,4.6,-,N/A,,Partly Cloudy,150,2012-10-07 06:53:00
3:53 AM,45.0,41.0,86,30.09,10.0,Calm,Calm,-,N/A,,Scattered Clouds,0,2012-10-07 07:53:00
4:53 AM,45.0,41.0,86,30.09,10.0,Calm,Calm,-,N/A,,Partly Cloudy,0,2012-10-07 08:53:00
5:53 AM,44.1,42.1,93,30.08,10.0,NNW,3.5,-,N/A,,Overcast,340,2012-10-07 09:53:00
6:53 AM,45.0,42.1,90,30.09,10.0,Calm,Calm,-,N/A,,Overcast,0,2012-10-07 10:53:00
7:53 AM,45.0,43.0,93,30.09,10.0,Calm,Calm,-,N/A,,Overcast,0,2012-10-07 11:53:00
8:53 AM,46.0,43.0,89,30.10,10.0,Calm,Calm,-,N/A,,Overcast,0,2012-10-07 12:53:00
9:53 AM,48.0,42.1,80,30.12,10.0,Calm,Calm,-,N/A,,Overcast,0,2012-10-07 13:53:00
10:53 AM,48.9,42.1,77,30.10,10.0,ENE,3.5,-,N/A,,Overcast,60,2012-10-07 14:53:00
11:53 AM,52.0,41.0,66,30.09,10.0,Calm,Calm,-,N/A,,Overcast,0,2012-10-07 15:53:00
12:53 PM,52.0,42.1,69,30.09,10.0,SW,3.5,-,N/A,,Overcast,230,2012-10-07 16:53:00
1:53 PM,52.0,39.9,63,30.09,10.0,Variable,3.5,-,N/A,,Overcast,0,2012-10-07 17:53:00
2:53 PM,51.1,39.9,66,30.09,10.0,Variable,5.8,-,N/A,,Overcast,0,2012-10-07 18:53:00
3:53 PM,46.9,42.1,83,30.12,9.0,NW,4.6,-,0.01,Rain,Light Rain,320,2012-10-07 19:53:00
4:26 PM,46.4,42.8,87,30.12,7.0,WNW,4.6,-,0.01,Rain,Light Rain,300,2012-10-07 20:26:00
4:53 PM,45.0,41.0,86,30.14,10.0,WNW,3.5,-,0.02,,Overcast,290,2012-10-07 20:53:00
5:04 PM,44.6,41.0,87,30.13,10.0,Calm,Calm,-,N/A,,Overcast,0,2012-10-07 21:04:00
5:11 PM,44.6,39.2,81,30.13,10.0,NW,3.5,-,N/A,,Overcast,310,2012-10-07 21:11:00
5:20 PM,44.6,41.0,87,30.13,10.0,WNW,3.5,-,N/A,,Overcast,300,2012-10-07 21:20:00
5:50 PM,44.6,41.0,87,30.15,10.0,WNW,3.5,-,N/A,,Overcast,290,2012-10-07 21:50:00
5:53 PM,45.0,39.9,82,30.16,10.0,Variable,3.5,-,N/A,,Overcast,0,2012-10-07 21:53:00
6:20 PM,44.6,39.2,81,30.15,10.0,Calm,Calm,-,N/A,,Overcast,0,2012-10-07 22:20:00
6:53 PM,45.0,37.9,76,30.17,10.0,Calm,Calm,-,N/A,,Overcast,0,2012-10-07 22:53:00
7:53 PM,43.0,37.9,82,30.18,10.0,Calm,Calm,-,N/A,,Clear,0,2012-10-07 23:53:00
8:53 PM,41.0,39.0,93,30.20,10.0,Calm,Calm,-,N/A,,Mostly Cloudy,0,2012-10-08 00:53:00
9:53 PM,41.0,39.9,96,30.21,6.0,Calm,Calm,-,N/A,,Overcast,0,2012-10-08 01:53:00
10:53 PM,39.9,39.0,97,30.21,6.0,South,3.5,-,N/A,,Mostly Cloudy,180,2012-10-08 02:53:00
11:53 PM,39.0,37.9,96,30.22,7.0,Calm,Calm,-,N/A,,Clear,0,2012-10-08 03:53:00